• In Germany
  • List of Countries
  • For 7 days
  • Water Temperature
  • Satellite Maps
  • Weather Map
  • Weather Widgets
  • user-avatar
    Login

    Hourly Weather Bururi

    Today, 21 May, Monday

    Time Temperature Precipitation Wind Pressure Humidity
    00:00 +16°C° 0.2 mm 1 mps 616 mmHg 89%
    01:00 +16°C° 0.2 mm 1 mps 616 mmHg 88%
    02:00 +15°C° 0 mm 1 mps 616 mmHg 88%
    03:00 +15°C° 0 mm 1 mps 616 mmHg 88%
    04:00 +15°C° 0 mm 1 mps 616 mmHg 88%
    05:00 +15°C° 0 mm 1 mps 616 mmHg 88%
    06:00 +16°C° 0 mm 1 mps 617 mmHg 84%
    07:00 +18°C° 0 mm 1 mps 617 mmHg 80%
    08:00 +20°C° 0 mm 1 mps 618 mmHg 73%
    09:00 +21°C° 0 mm 1 mps 618 mmHg 69%
    10:00 +21°C° 0 mm 2 mps 618 mmHg 65%
    11:00 +23°C° 0 mm 2 mps 618 mmHg 61%
    12:00 +23°C° 0.1 mm 2 mps 618 mmHg 61%
    13:00 +24°C° 0.1 mm 2 mps 618 mmHg 61%
    14:00 +23°C° 0 mm 2 mps 617 mmHg 61%
    15:00 +23°C° 0.1 mm 2 mps 617 mmHg 65%
    16:00 +21°C° 0.1 mm 2 mps 617 mmHg 69%
    17:00 +20°C° 0.1 mm 2 mps 616 mmHg 73%
    18:00 +19°C° 0.2 mm 2 mps 616 mmHg 79%
    19:00 +19°C° 0.2 mm 1 mps 616 mmHg 84%
    20:00 +16°C° 0.2 mm 1 mps 616 mmHg 89%
    21:00 +16°C° 0.2 mm 1 mps 617 mmHg 89%
    22:00 +16°C° 0.2 mm 1 mps 617 mmHg 89%
    23:00 +16°C° 0.2 mm 1 mps 617 mmHg 89%

    Tomorrow, 22 May, Tuesday

    Time Temperature Precipitation Wind Pressure Humidity
    00:00 +16°C° 0.4 mm 1 mps 617 mmHg 88%
    01:00 +16°C° 0.4 mm 1 mps 617 mmHg 88%
    02:00 +16°C° 0.4 mm 1 mps 617 mmHg 87%
    03:00 +16°C° 0.2 mm 1 mps 617 mmHg 87%
    04:00 +16°C° 0.2 mm 2 mps 617 mmHg 86%
    05:00 +16°C° 0.2 mm 2 mps 617 mmHg 85%
    06:00 +17°C° 0.2 mm 2 mps 617 mmHg 82%
    07:00 +18°C° 0.2 mm 2 mps 618 mmHg 78%
    08:00 +19°C° 0.2 mm 2 mps 618 mmHg 74%
    09:00 +20°C° 0 mm 2 mps 619 mmHg 70%
    10:00 +21°C° 0 mm 2 mps 619 mmHg 65%
    11:00 +23°C° 0 mm 2 mps 619 mmHg 61%
    12:00 +23°C° 0.2 mm 2 mps 619 mmHg 61%
    13:00 +23°C° 0.2 mm 2 mps 619 mmHg 61%
    14:00 +24°C° 0.2 mm 2 mps 618 mmHg 62%
    15:00 +23°C° 0.4 mm 1 mps 618 mmHg 65%
    16:00 +22°C° 0.4 mm 1 mps 617 mmHg 69%
    17:00 +21°C° 0.4 mm 1 mps 617 mmHg 73%
    18:00 +20°C° 0.5 mm 1 mps 617 mmHg 77%
    19:00 +19°C° 0.5 mm 1 mps 617 mmHg 82%
    20:00 +16°C° 0.5 mm 1 mps 617 mmHg 87%
    21:00 +16°C° 0.2 mm 1 mps 618 mmHg 86%
    22:00 +16°C° 0.2 mm 1 mps 618 mmHg 86%
    23:00 +16°C° 0.2 mm 1 mps 618 mmHg 86%

    Day after tomorrow, 23 May, Wednesday

    Time Temperature Precipitation Wind Pressure Humidity
    00:00 +16°C° 0.2 mm 1 mps 618 mmHg 85%
    01:00 +16°C° 0.2 mm 1 mps 618 mmHg 85%
    02:00 +16°C° 0.2 mm 1 mps 617 mmHg 85%
    03:00 +16°C° 0.1 mm 1 mps 617 mmHg 84%
    04:00 +16°C° 0.1 mm 1 mps 617 mmHg 84%
    05:00 +16°C° 0.1 mm 1 mps 617 mmHg 83%
    06:00 +18°C° 0 mm 1 mps 618 mmHg 79%
    07:00 +19°C° 0 mm 1 mps 618 mmHg 76%
    08:00 +20°C° 0 mm 1 mps 619 mmHg 72%
    09:00 +21°C° 0.1 mm 1 mps 620 mmHg 69%
    10:00 +21°C° 0.1 mm 2 mps 620 mmHg 66%
    11:00 +23°C° 0.1 mm 2 mps 620 mmHg 63%
    12:00 +23°C° 0.2 mm 2 mps 620 mmHg 62%
    13:00 +23°C° 0.2 mm 2 mps 619 mmHg 62%
    14:00 +23°C° 0.2 mm 2 mps 618 mmHg 62%
    15:00 +23°C° 0.3 mm 2 mps 618 mmHg 66%
    16:00 +21°C° 0.3 mm 2 mps 618 mmHg 70%
    17:00 +20°C° 0.3 mm 2 mps 617 mmHg 75%
    18:00 +20°C° 0.5 mm 1 mps 617 mmHg 80%
    19:00 +18°C° 0.5 mm 1 mps 618 mmHg 85%
    20:00 +16°C° 0.5 mm 1 mps 618 mmHg 89%
    21:00 +16°C° 0.2 mm 1 mps 618 mmHg 89%
    22:00 +16°C° 0.2 mm 1 mps 618 mmHg 89%
    23:00 +16°C° 0.2 mm 1 mps 618 mmHg 89%

    24 May, Thursday

    Time Temperature Precipitation Wind Pressure Humidity
    00:00 +15°C° 0.1 mm 1 mps 618 mmHg 89%
    01:00 +15°C° 0.1 mm 1 mps 617 mmHg 88%
    02:00 +15°C° 0.1 mm 1 mps 617 mmHg 88%
    03:00 +15°C° 0.1 mm 1 mps 617 mmHg 87%
    04:00 +15°C° 0.1 mm 1 mps 617 mmHg 87%
    05:00 +15°C° 0.1 mm 1 mps 617 mmHg 86%
    06:00 +16°C° 0 mm 1 mps 618 mmHg 82%
    07:00 +18°C° 0 mm 1 mps 618 mmHg 78%
    08:00 +20°C° 0 mm 1 mps 619 mmHg 74%
    09:00 +21°C° 0.1 mm 1 mps 619 mmHg 70%
    10:00 +20°C° 0.1 mm 2 mps 620 mmHg 67%
    11:00 +21°C° 0.1 mm 2 mps 620 mmHg 64%
    12:00 +23°C° 0 mm 2 mps 619 mmHg 62%
    13:00 +22°C° 0 mm 3 mps 618 mmHg 61%
    14:00 +24°C° 0 mm 3 mps 618 mmHg 60%
    15:00 +23°C° 0.1 mm 2 mps 617 mmHg 64%
    16:00 +21°C° 0.1 mm 2 mps 617 mmHg 67%
    17:00 +21°C° 0.1 mm 2 mps 617 mmHg 71%
    18:00 +20°C° 0 mm 1 mps 617 mmHg 76%
    19:00 +19°C° 0 mm 1 mps 617 mmHg 81%
    20:00 +16°C° 0 mm 1 mps 617 mmHg 86%
    21:00 +16°C° 0 mm 1 mps 617 mmHg 85%
    22:00 +16°C° 0 mm 1 mps 617 mmHg 85%
    23:00 +16°C° 0 mm 1 mps 618 mmHg 84%

    25 May, Friday

    Time Temperature Precipitation Wind Pressure Humidity
    00:00 +16°C° 0 mm 1 mps 617 mmHg 84%
    01:00 +16°C° 0 mm 1 mps 617 mmHg 83%
    02:00 +16°C° 0 mm 1 mps 616 mmHg 82%
    03:00 +15°C° 0 mm 1 mps 616 mmHg 81%
    04:00 +15°C° 0 mm 1 mps 616 mmHg 81%
    05:00 +15°C° 0 mm 1 mps 616 mmHg 81%
    06:00 +16°C° 0 mm 1 mps 617 mmHg 77%
    07:00 +19°C° 0 mm 1 mps 618 mmHg 73%
    08:00 +20°C° 0 mm 1 mps 619 mmHg 68%
    09:00 +20°C° 0 mm 2 mps 619 mmHg 65%
    10:00 +21°C° 0 mm 2 mps 619 mmHg 61%
    11:00 +23°C° 0 mm 2 mps 619 mmHg 58%
    12:00 +23°C° 0 mm 2 mps 619 mmHg 57%
    13:00 +24°C° 0 mm 2 mps 618 mmHg 57%
    14:00 +24°C° 0 mm 2 mps 617 mmHg 56%
    15:00 +23°C° 0.1 mm 2 mps 617 mmHg 60%
    16:00 +23°C° 0.1 mm 2 mps 617 mmHg 64%
    17:00 +21°C° 0.1 mm 2 mps 617 mmHg 68%
    18:00 +19°C° 0 mm 2 mps 617 mmHg 73%
    19:00 +19°C° 0 mm 1 mps 617 mmHg 77%
    20:00 +16°C° 0 mm 1 mps 617 mmHg 82%
    21:00 +16°C° 0 mm 1 mps 617 mmHg 81%
    22:00 +16°C° 0 mm 1 mps 617 mmHg 81%
    23:00 +16°C° 0 mm 1 mps 617 mmHg 81%

    26 May, Saturday

    Time Temperature Precipitation Wind Pressure Humidity
    00:00 +15°C° 0 mm 1 mps 617 mmHg 79%
    01:00 +15°C° 0 mm 2 mps 616 mmHg 77%
    02:00 +15°C° 0 mm 2 mps 616 mmHg 75%
    03:00 +15°C° 0 mm 1 mps 616 mmHg 75%
    04:00 +15°C° 0 mm 1 mps 616 mmHg 74%
    05:00 +15°C° 0 mm 1 mps 616 mmHg 73%
    06:00 +16°C° 0 mm 1 mps 617 mmHg 71%
    07:00 +18°C° 0 mm 1 mps 618 mmHg 68%
    08:00 +20°C° 0 mm 1 mps 619 mmHg 66%
    09:00 +21°C° 0 mm 1 mps 619 mmHg 62%
    10:00 +21°C° 0 mm 2 mps 619 mmHg 59%
    11:00 +24°C° 0 mm 2 mps 620 mmHg 56%
    12:00 +24°C° 0 mm 2 mps 619 mmHg 55%
    13:00 +25°C° 0 mm 2 mps 618 mmHg 54%
    14:00 +25°C° 0 mm 2 mps 618 mmHg 53%
    15:00 +24°C° 0.1 mm 2 mps 618 mmHg 57%
    16:00 +23°C° 0.1 mm 2 mps 617 mmHg 62%
    17:00 +21°C° 0.1 mm 2 mps 617 mmHg 66%
    18:00 +20°C° 0.2 mm 2 mps 617 mmHg 71%
    19:00 +19°C° 0.2 mm 1 mps 617 mmHg 76%
    20:00 +18°C° 0.2 mm 1 mps 617 mmHg 81%
    21:00 +16°C° 0.1 mm 1 mps 617 mmHg 80%
    22:00 +16°C° 0.1 mm 1 mps 617 mmHg 80%
    23:00 +16°C° 0.1 mm 1 mps 617 mmHg 79%
    Show more